Weather History for Rock Hill, SC

Change the Weather History Date:

Saturday, December 1, 2012

  Actual Average Record
Temperature  
Mean Temperature 50 °F -  
Max Temperature 66 °F 57 °F 76 °F (1991)
Min Temperature 35 °F 37 °F 18 °F (1964)
Degree Days  
Heating Degree Days 14    
Moisture  
Dew Point 40 °F    
Average Humidity 88    
Maximum Humidity 100    
Minimum Humidity 47    
Precipitation  
Precipitation 0.00 in - - ()
Sea Level Pressure  
Sea Level Pressure 30.36 in    
Wind  
Wind Speed 2 mph (WSW)    
Max Wind Speed 8 mph    
Max Gust Speed -    
Visibility 5 miles    
Events Fog    
Averages and records for this station are not official NWS values.
T = Trace of Precipitation, MM = Missing Value Source: NWS Daily Summary

Daily Weather History Graph

Daily Weather History Graph

Search for Another Location

Airport:

Trip Planner

Search our weather history database for the weather conditions in past years. The results will help you decide how hot, cold, wet, or windy it might be!

Date:

Astronomy

Dec. 01, 2012 Rise Set
Actual Time 7:14 AM EST 5:12 PM EST
Civil Twilight 6:46 AM EST 5:40 PM EST
Nautical Twilight 6:15 AM EST 6:11 PM EST
Astronomical Twilight 5:44 AM EST 6:42 PM EST
Moon 7:59 PM EST (12/1) 9:27 AM EST (12/1)
Length of Visible Light 10h 53m
Length of Day
9h 58m
Waning Gibbous, 92% of the Moon is Illuminated
Dec 1
Waning Gibbous
Dec 6
Last Quarter
Dec 13
New
Dec 20
First Quarter
Dec 28
Full

Hourly Weather History & Observations

Time (EST) Temp. Windchill Dew Point Humidity Pressure Visibility Wind Dir Wind Speed Gust Speed Precip Events Conditions
12:54 AM 41.0 °F 37.1 °F 39.9 °F 96% 30.32 in 7.0 mi SSW 5.8 mph - N/A   Clear
1:54 AM 42.1 °F 40.2 °F 39.9 °F 92% 30.32 in 8.0 mi SW 3.5 mph - N/A   Clear
2:54 AM 37.9 °F 34.4 °F 37.0 °F 97% 30.32 in 3.0 mi SSW 4.6 mph - N/A   Clear
4:26 AM 36.0 °F - 36.0 °F 100% 30.32 in 1.8 mi Calm Calm - N/A   Clear
4:40 AM 37.0 °F - 37.0 °F 100% 30.32 in 2.5 mi Calm Calm - N/A   Clear
4:46 AM 36.0 °F - 36.0 °F 100% 30.32 in 0.8 mi Calm Calm - N/A   Clear
4:54 AM 37.0 °F - 37.0 °F 100% 30.33 in 1.2 mi Calm Calm - N/A   Partly Cloudy
4:57 AM 37.0 °F - 37.0 °F 100% 30.33 in 3.0 mi Calm Calm - N/A   Clear
5:27 AM 37.0 °F - 35.1 °F 93% 30.33 in 1.8 mi Calm Calm - N/A   Clear
5:39 AM 37.9 °F - 37.0 °F 97% 30.34 in 0.8 mi Calm Calm - N/A   Clear
5:45 AM 37.0 °F - 37.0 °F 100% 30.34 in 2.0 mi Calm Calm - N/A   Clear
5:54 AM 35.1 °F - 35.1 °F 100% 30.35 in 3.0 mi Calm Calm - N/A   Clear
6:28 AM 36.0 °F - 36.0 °F 100% 30.35 in 2.0 mi Calm Calm - N/A   Clear
6:43 AM 35.1 °F - 35.1 °F 100% 30.36 in 2.5 mi Calm Calm - N/A   Partly Cloudy
6:51 AM 35.6 °F - 35.6 °F 100% 30.36 in 1.0 mi Calm Calm - N/A   Mist
7:08 AM 36.0 °F - 35.1 °F 97% 30.37 in 1.0 mi Calm Calm - N/A   Mist
7:15 AM 36.0 °F - 36.0 °F 100% 30.37 in 0.2 mi Calm Calm - N/A Fog Fog
7:49 AM 35.6 °F 32.8 °F 35.6 °F 100% 30.38 in 1.0 mi NNE 3.5 mph - N/A   Mist
7:54 AM 36.0 °F 33.3 °F 35.1 °F 97% 30.40 in 1.0 mi NNE 3.5 mph - N/A   Mist
8:06 AM 37.9 °F - 37.0 °F 97% 30.39 in 1.5 mi Calm Calm - N/A   Partly Cloudy
8:44 AM 46.0 °F - 45.0 °F 96% 30.40 in 2.5 mi Calm Calm - N/A   Clear
8:54 AM 46.9 °F - 45.0 °F 93% 30.41 in 2.5 mi Calm Calm - N/A   Clear
9:07 AM 50.0 °F - 45.0 °F 83% 30.40 in 4.0 mi Calm Calm - N/A   Haze
9:54 AM 55.0 °F - 48.0 °F 77% 30.43 in 7.0 mi North 3.5 mph - N/A   Clear
10:54 AM 59.0 °F - 48.0 °F 67% 30.41 in 9.0 mi Calm Calm - N/A   Clear
12:54 PM 64.9 °F - 50.0 °F 58% 30.35 in 10.0 mi Variable 4.6 mph - N/A   Mostly Cloudy
1:54 PM 66.9 °F - 48.9 °F 52% 30.33 in 10.0 mi WSW 3.5 mph - N/A   Mostly Cloudy
2:54 PM 66.9 °F - 46.9 °F 49% 30.32 in 10.0 mi Calm Calm - N/A   Scattered Clouds
3:54 PM 66.0 °F - 45.0 °F 47% 30.32 in 10.0 mi SW 8.1 mph - N/A   Clear
4:54 PM 62.1 °F - 44.1 °F 52% 30.33 in 10.0 mi WSW 4.6 mph - N/A   Clear
5:54 PM 52.0 °F - 43.0 °F 71% 30.35 in 10.0 mi Calm Calm - N/A   Clear
6:54 PM 48.0 °F - 43.0 °F 83% 30.35 in 10.0 mi Calm Calm - N/A   Clear
7:54 PM 48.9 °F - 43.0 °F 80% 30.38 in 10.0 mi Calm Calm - N/A   Clear
8:54 PM 44.1 °F - 42.1 °F 93% 30.37 in 8.0 mi Calm Calm - N/A   Clear
9:54 PM 45.0 °F - 42.1 °F 90% 30.36 in 8.0 mi Calm Calm - N/A   Clear
10:54 PM 43.0 °F - 42.1 °F 97% 30.37 in 7.0 mi Calm Calm - N/A   Clear
11:54 PM 42.1 °F - 41.0 °F 96% 30.36 in 5.0 mi Calm Calm - N/A   Clear